Date,TemperatureHighF,TemperatureAvgF,TemperatureLowF,DewpointHighF,DewpointAvgF,DewpointLowF,HumidityHigh,HumidityAvg,HumidityLow,PressureMaxIn,PressureMinIn,WindSpeedMaxMPH,WindSpeedAvgMPH,GustSpeedMaxMPH,PrecipitationSumIn
2013-1-1,34,29,18,29,20,7,86,68,55,29.96,29.72,15,2,21,0.00
2013-1-2,28,17,5,19,8,-1,82,70,63,30.15,29.93,9,2,11,0.00
2013-1-3,24,12,0,9,2,-8,75,63,42,30.18,30.01,5,0,9,0.00
2013-1-4,36,25,9,27,19,4,93,77,67,30.01,29.83,11,2,15,0.00
2013-1-5,39,32,20,28,23,16,83,71,52,30.28,29.86,13,1,14,0.00
2013-1-6,39,30,20,31,25,16,90,83,71,30.25,29.97,8,0,13,0.01
2013-1-7,36,27,16,28,21,12,96,79,55,30.42,29.99,9,0,9,0.00
2013-1-8,41,26,12,31,21,7,96,80,66,30.40,30.29,10,0,12,0.07
2013-1-9,41,31,19,36,27,16,90,85,69,30.45,30.01,10,1,15,0.25
2013-1-10,43,38,28,32,28,24,86,67,54,30.57,30.06,12,2,21,0.27
2013-1-11,37,31,23,33,27,20,97,86,73,30.57,30.25,2,0,4,0.16
2013-1-12,41,36,34,41,36,33,100,99,97,30.25,30.15,1,0,2,0.12
2013-1-13,44,39,34,44,39,34,100,100,100,30.19,30.01,4,0,6,0.00
2013-1-14,53,43,37,50,40,32,100,91,67,30.29,29.89,7,1,13,0.00
2013-1-15,40,35,29,32,29,27,92,80,64,30.36,30.27,3,0,9,0.00
2013-1-16,34,32,30,33,30,27,99,95,88,30.28,29.84,0,0,1,0.03
2013-1-17,40,32,25,35,27,15,99,84,59,30.13,29.85,9,1,12,0.19
2013-1-18,28,20,14,16,7,1,76,56,42,30.46,30.10,11,2,14,0.00
2013-1-19,43,32,17,31,23,10,86,69,58,30.39,29.89,11,2,17,0.12
2013-1-20,48,37,27,35,27,15,85,68,47,29.97,29.56,18,3,25,0.03
2013-1-21,28,24,19,20,14,7,88,64,51,30.12,29.83,10,1,11,0.00
2013-1-22,23,19,12,20,10,1,88,68,48,30.11,29.80,9,2,13,0.00
2013-1-23,15,10,5,1,-4,-8,66,51,36,30.17,30.10,10,2,16,0.00
2013-1-24,18,10,1,-3,-7,-10,63,47,35,30.27,30.10,14,3,17,0.00
2013-1-25,22,16,8,10,-3,-9,68,44,32,30.35,30.10,10,2,14,0.00
2013-1-26,23,16,9,11,4,-3,78,59,35,30.27,30.06,10,2,16,0.00
2013-1-27,28,19,12,7,4,1,66,52,36,30.51,30.26,10,2,13,0.00
2013-1-28,28,22,13,23,15,3,91,75,53,30.50,30.06,3,0,6,0.00
2013-1-29,35,29,22,32,27,20,98,91,84,30.23,30.07,2,0,3,0.09
2013-1-30,54,41,32,54,41,32,100,99,97,30.18,29.46,9,0,9,0.21
2013-1-31,57,44,28,57,39,20,100,83,58,29.62,28.95,16,4,22,0.47
2013-2-1,31,27,21,24,14,7,82,60,44,30.12,29.62,13,3,17,0.00
2013-2-2,29,23,16,17,10,7,70,57,48,30.27,30.07,9,2,11,0.00
2013-2-3,28,25,20,23,20,16,90,81,70,30.09,29.77,4,0,7,0.00
2013-2-4,30,24,20,22,13,8,88,65,46,29.98,29.77,16,2,17,0.00
2013-2-5,31,25,19,21,14,8,84,63,52,30.06,29.97,4,1,6,0.00
2013-2-6,37,29,23,26,19,8,89,70,47,30.34,29.97,11,2,14,0.01
2013-2-7,29,23,14,11,7,2,76,52,37,30.56,30.34,7,1,11,0.00
2013-2-8,25,21,17,18,15,4,95,79,41,30.53,29.76,10,2,14,0.00
2013-2-9,23,19,14,19,14,3,97,81,59,30.26,29.72,18,4,20,0.00
2013-2-10,36,20,2,24,9,-5,76,64,36,30.43,30.27,8,1,11,0.08
2013-2-11,32,25,14,32,22,7,100,90,74,30.39,29.66,3,0,3,0.00
2013-2-12,43,36,32,34,31,27,100,82,66,29.91,29.66,13,3,16,0.35
2013-2-13,42,32,23,30,26,20,89,77,60,29.92,29.77,6,0,7,0.09
2013-2-14,42,33,24,28,25,20,87,74,54,30.02,29.75,5,0,9,0.00
2013-2-15,48,34,21,36,28,18,90,79,59,30.02,29.92,17,1,17,0.00
2013-2-16,40,34,28,33,28,19,97,80,61,30.01,29.79,6,1,8,0.08
2013-2-17,28,21,16,19,9,2,84,60,47,29.79,29.48,17,5,27,0.00
2013-2-18,29,21,13,8,4,1,59,47,32,30.19,29.76,13,4,22,0.00
2013-2-19,44,31,20,38,23,8,96,73,50,30.22,29.62,7,0,12,0.02
2013-2-20,36,31,25,36,22,15,100,72,52,29.82,29.58,12,3,18,0.00
2013-2-21,32,26,22,18,16,12,75,63,51,30.27,29.81,19,3,19,0.00
2013-2-22,40,32,21,26,22,16,84,69,52,30.44,30.27,6,0,10,0.00
2013-2-23,37,33,29,33,29,24,98,86,79,30.39,29.99,6,0,7,0.02
2013-2-24,35,34,32,35,33,32,100,99,97,29.99,29.79,3,0,4,0.11
2013-2-25,40,34,28,37,33,26,100,96,88,30.28,29.96,1,0,2,0.03
2013-2-26,42,35,28,37,32,28,100,89,73,30.38,30.22,5,0,6,0.00
2013-2-27,40,35,33,40,35,31,100,99,89,30.22,29.65,11,1,12,0.00
2013-2-28,42,36,32,41,35,32,100,98,91,29.69,29.59,2,0,4,0.00
2013-3-1,39,34,29,35,32,29,100,91,74,29.69,29.60,3,0,7,0.00
2013-3-2,41,36,30,33,30,27,90,78,71,29.74,29.68,4,0,7,0.00
2013-3-3,40,35,31,34,30,27,88,81,75,29.71,29.63,8,0,8,0.01
2013-3-4,39,33,28,29,26,22,83,75,60,29.82,29.65,12,2,15,0.00
2013-3-5,45,36,29,33,29,24,88,74,60,30.13,29.82,8,0,9,0.00
2013-3-6,38,35,31,36,34,31,100,96,88,30.18,30.11,12,1,15,0.10
2013-3-7,35,32,30,33,30,27,100,94,85,30.18,30.08,7,1,13,0.13
2013-3-8,38,33,30,35,31,27,100,92,72,30.23,30.04,7,0,9,0.01
2013-3-9,51,37,24,32,27,21,92,70,36,30.42,30.23,5,0,8,0.50
2013-3-10,45,34,21,35,28,18,91,80,65,30.48,30.35,4,0,7,0.01
2013-3-11,50,40,29,41,35,27,96,83,64,30.37,30.19,6,0,9,0.00
2013-3-12,52,44,38,51,44,36,100,99,91,30.19,29.76,12,0,12,0.26
2013-3-13,47,41,31,46,33,25,100,77,47,29.85,29.77,8,1,15,0.00
2013-3-14,34,30,22,26,19,9,85,64,51,29.90,29.77,19,2,19,0.00
2013-3-15,39,29,20,30,17,7,86,61,38,29.95,29.68,12,2,16,0.00
2013-3-16,38,32,27,28,19,15,78,59,41,29.95,29.74,6,1,9,0.00
2013-3-17,36,29,21,20,15,8,85,57,35,30.38,29.95,11,1,17,0.00
2013-3-18,38,28,16,27,12,6,87,52,32,30.52,30.29,5,0,10,0.00
2013-3-19,35,31,27,34,30,26,100,96,87,30.29,29.72,7,0,9,0.01
2013-3-20,37,30,23,28,25,19,95,82,64,29.87,29.77,14,1,14,0.12
2013-3-21,40,28,15,27,20,11,88,73,49,29.88,29.65,4,0,4,0.29
2013-3-22,40,32,25,26,22,18,87,67,50,29.80,29.68,10,1,11,0.17
2013-3-23,42,34,24,26,23,19,83,64,45,29.86,29.71,14,3,22,0.12
2013-3-24,46,37,31,30,26,23,80,65,51,29.89,29.80,14,2,17,0.00
2013-3-25,45,36,28,34,29,24,86,76,62,29.84,29.59,8,1,13,0.00
2013-3-26,48,39,32,34,29,25,86,67,43,29.85,29.62,8,1,11,0.01
2013-3-27,53,40,26,34,28,23,88,65,40,29.95,29.81,11,1,12,0.00
2013-3-28,49,42,36,36,34,32,93,76,54,30.08,29.95,4,0,7,0.01
2013-3-29,54,43,30,39,34,28,93,72,48,30.12,30.03,8,1,10,0.00
2013-3-30,54,44,33,34,28,22,89,59,29,30.17,30.06,8,1,12,0.00
2013-3-31,58,43,26,42,30,22,92,65,36,30.20,29.81,10,1,14,0.08
2013-4-1,59,45,34,53,39,18,100,82,48,29.86,29.55,11,2,17,0.42
2013-4-2,40,34,28,21,18,14,64,52,39,29.99,29.86,14,4,19,0.00
2013-4-3,45,36,28,21,18,15,62,48,32,30.23,29.99,13,4,19,0.00
2013-4-4,53,41,28,26,22,17,70,47,30,30.37,30.09,10,2,12,0.00
2013-4-5,60,47,37,34,29,26,74,53,28,30.10,29.71,10,2,15,0.00
2013-4-6,44,37,29,28,16,10,68,44,26,30.40,29.96,17,3,17,0.00
2013-4-7,56,40,25,38,27,16,77,59,37,30.40,30.04,11,2,19,0.00
2013-4-8,63,50,36,43,39,33,96,70,41,30.15,30.02,8,1,10,0.00
2013-4-9,68,55,45,54,47,40,97,75,54,30.13,29.94,10,1,15,0.02
2013-4-10,61,53,47,54,50,45,100,90,76,30.09,29.92,4,0,6,0.57
2013-4-11,52,47,41,51,40,29,100,79,50,30.22,29.91,6,1,9,0.06
2013-4-12,42,37,35,37,35,33,100,95,82,30.26,29.89,7,1,11,0.61
2013-4-13,52,43,35,43,39,35,100,86,64,30.01,29.86,4,1,8,0.10
2013-4-14,52,44,34,41,36,30,95,74,52,30.30,29.99,15,1,15,0.00
2013-4-15,58,44,29,42,35,27,94,73,50,30.45,30.30,7,1,9,0.00
2013-4-16,68,51,34,55,45,32,96,81,56,30.46,30.11,14,2,17,0.02
2013-4-17,65,57,45,55,42,34,93,60,35,30.41,30.12,9,2,12,0.00
2013-4-18,65,51,34,47,38,31,90,63,43,30.51,30.20,8,1,12,0.00
2013-4-19,75,64,53,66,60,47,100,88,70,30.21,29.69,15,2,18,0.00
2013-4-20,67,53,42,66,44,27,100,74,48,30.30,29.67,19,2,19,0.50
2013-4-21,52,43,32,31,27,22,80,54,33,30.75,30.30,10,1,13,0.00
2013-4-22,54,42,30,36,31,27,89,67,40,30.83,30.67,12,1,18,0.00
2013-4-23,41,39,36,41,37,32,100,94,78,30.67,30.21,5,1,7,0.00
2013-4-24,73,57,40,58,48,40,100,76,41,30.21,29.84,8,2,14,0.00
2013-4-25,62,55,41,54,41,30,97,63,33,30.35,29.87,9,2,13,0.07
2013-4-26,63,50,33,43,37,30,90,65,42,30.50,30.35,6,1,9,0.00
2013-4-27,66,52,35,47,40,33,92,65,43,30.50,30.34,4,0,7,0.00
2013-4-28,71,55,37,49,42,34,93,63,39,30.41,30.25,6,1,10,0.00
2013-4-29,71,58,44,54,43,35,85,60,42,30.34,30.23,10,1,11,0.00
2013-4-30,72,60,47,44,38,32,78,48,29,30.43,30.32,8,1,9,0.00
2013-5-1,73,56,36,45,39,32,87,56,33,30.54,30.43,6,1,8,0.00
2013-5-2,80,58,41,54,44,38,91,64,33,30.57,30.39,10,1,15,0.00
2013-5-3,65,53,40,50,44,37,91,74,56,30.62,30.46,6,1,9,0.00
2013-5-4,67,53,39,52,42,29,97,69,30,30.46,30.36,8,1,10,0.00
2013-5-5,67,51,34,48,40,31,94,69,48,30.41,30.30,6,1,11,0.00
2013-5-6,73,56,34,53,44,32,94,68,33,30.36,30.19,9,1,9,0.00
2013-5-7,80,64,42,62,53,40,98,71,42,30.25,30.14,7,1,9,0.00
2013-5-8,73,63,52,69,61,51,100,92,75,30.28,30.12,7,0,11,0.45
2013-5-9,67,62,59,64,61,59,100,99,87,30.11,29.96,3,0,5,0.25
2013-5-10,78,66,53,67,61,53,100,83,55,30.03,29.94,5,0,6,0.01
2013-5-11,68,64,60,67,62,58,100,96,91,29.97,29.76,10,1,10,0.12
2013-5-12,70,60,47,61,54,39,100,82,53,29.88,29.64,7,1,14,0.00
2013-5-13,58,49,41,41,37,34,86,65,46,30.11,29.89,7,1,11,0.00
2013-5-14,59,49,40,41,38,35,91,67,43,30.13,30.05,5,1,12,0.00
2013-5-15,68,51,34,54,44,31,98,79,41,30.13,29.74,7,1,15,0.05
2013-5-16,79,65,49,54,48,41,97,61,33,29.88,29.70,10,2,20,0.00
2013-5-17,68,59,48,50,46,42,88,64,40,30.30,29.89,9,1,14,0.00
2013-5-18,73,58,41,52,46,38,95,68,39,30.39,30.28,6,0,8,0.00
2013-5-19,71,58,47,61,54,45,100,87,63,30.43,30.28,4,0,6,0.05
2013-5-20,81,68,57,71,64,57,100,87,68,30.27,29.99,5,1,8,0.04
2013-5-21,81,65,52,75,62,51,100,92,79,30.14,29.93,4,0,9,0.12
2013-5-22,69,58,52,67,58,52,100,98,90,30.18,29.95,4,0,8,0.96
2013-5-23,74,63,55,74,63,55,100,100,95,30.01,29.85,6,0,9,0.76
2013-5-24,71,62,49,70,61,49,100,97,84,29.92,29.71,6,0,9,0.93
2013-5-25,50,47,40,50,47,40,100,100,100,29.91,29.81,8,1,15,0.47
2013-5-26,56,48,40,48,44,40,100,86,65,30.18,29.80,16,2,16,0.00
2013-5-27,70,56,39,51,45,38,99,70,40,30.27,30.14,7,1,11,0.00
2013-5-28,74,59,42,56,50,40,98,74,45,30.34,30.22,4,0,6,0.00
2013-5-29,69,62,56,68,62,53,100,98,90,30.25,30.04,2,0,4,0.33
2013-5-30,86,74,60,76,69,60,100,86,61,30.15,30.07,7,1,8,0.02
2013-5-31,92,78,62,78,70,61,100,79,56,30.17,30.00,5,1,9,0.00
2013-6-1,92,80,66,78,72,66,100,76,50,30.04,29.91,6,1,10,0.00
2013-6-2,91,80,70,78,73,69,98,80,53,29.94,29.76,10,1,16,0.02
2013-6-3,79,70,57,73,66,53,100,90,68,29.92,29.82,5,0,7,0.26
2013-6-4,63,58,54,53,52,51,88,82,70,30.18,30.09,0,0,0,0.00
2013-6-5,75,62,47,60,53,46,98,74,44,30.27,30.15,4,0,6,0.00
2013-6-6,74,64,53,62,56,52,97,78,59,30.27,30.16,4,0,7,0.03
2013-6-7,60,56,52,58,55,52,100,99,94,30.18,29.92,4,0,5,1.45
2013-6-8,75,62,52,70,60,52,100,94,80,30.07,29.73,6,1,8,0.96
2013-6-9,77,67,54,67,61,54,100,83,60,30.23,30.07,6,1,10,0.00
2013-6-10,70,62,54,65,60,54,100,93,77,30.28,30.09,3,0,5,0.93
2013-6-11,61,58,55,61,58,55,100,100,100,30.08,29.66,3,0,5,0.95
2013-6-12,68,62,56,61,58,56,100,90,75,29.89,29.64,9,1,18,0.11
2013-6-13,64,57,50,63,56,50,100,98,90,29.90,29.78,3,0,6,0.67
2013-6-14,71,60,52,66,58,52,100,92,64,29.85,29.74,3,0,5,0.59
2013-6-15,77,65,52,59,55,51,100,74,43,30.01,29.86,6,1,12,0.01
2013-6-16,76,66,53,67,60,52,100,84,62,30.02,29.77,6,0,8,0.00
2013-6-17,84,70,60,72,65,59,99,87,61,29.97,29.84,6,1,9,0.52
2013-6-18,71,62,57,67,61,57,100,98,84,30.02,29.94,2,0,4,0.58
2013-6-19,73,64,55,62,57,52,100,80,49,30.21,29.98,5,0,6,0.01
2013-6-20,78,65,48,65,56,47,99,76,49,30.33,30.22,6,0,8,0.00
2013-6-21,83,70,55,69,62,54,100,78,49,30.30,30.24,5,0,6,0.00
2013-6-22,85,73,60,74,66,59,99,81,62,30.29,30.15,6,1,11,0.00
2013-6-23,90,79,67,80,72,64,94,80,68,30.20,30.03,6,1,9,0.00
2013-6-24,92,80,71,82,75,70,100,85,60,30.07,29.93,6,1,9,0.20
2013-6-25,89,78,68,80,74,68,100,88,67,29.99,29.77,4,1,10,0.07
2013-6-26,83,74,68,77,73,68,100,95,80,29.91,29.78,4,0,7,0.12
2013-6-27,70,68,65,70,68,65,100,100,100,29.92,29.81,2,0,5,0.04
2013-6-28,77,66,59,77,66,59,100,100,98,29.82,29.53,4,0,7,0.86
2013-6-29,82,75,69,76,72,69,100,93,76,29.76,29.55,9,1,12,0.01
2013-6-30,85,76,66,79,73,66,100,91,75,29.98,29.76,6,0,8,0.00
2013-7-1,79,74,72,77,74,72,100,99,94,30.12,29.97,1,0,4,1.36
2013-7-2,82,74,64,80,73,64,100,97,86,30.26,30.11,4,0,9,0.01
2013-7-3,86,75,63,80,73,63,100,93,78,30.26,30.18,6,1,9,0.00
2013-7-4,91,83,73,83,78,73,100,87,70,30.25,30.14,9,1,13,0.00
2013-7-5,92,84,75,83,79,75,100,85,70,30.21,30.08,6,1,9,0.00
2013-7-6,89,81,72,81,75,68,100,83,63,30.13,30.04,6,1,9,0.00
2013-7-7,89,78,67,82,75,66,100,90,75,30.08,29.96,4,0,5,0.00
2013-7-8,87,77,70,81,76,70,100,94,76,30.13,29.96,5,0,6,0.01
2013-7-9,74,70,66,72,69,66,100,99,95,30.17,30.10,2,0,3,0.00
2013-7-10,81,73,67,81,73,67,100,100,93,30.13,29.83,5,0,7,0.18
2013-7-11,82,75,70,79,74,70,100,97,84,30.00,29.81,3,0,6,0.22
2013-7-12,78,72,66,70,67,64,100,85,63,30.26,30.00,5,0,8,0.00
2013-7-13,78,71,65,75,69,64,100,93,87,30.36,30.26,3,0,4,0.00
2013-7-14,90,79,68,80,75,68,100,89,68,30.35,30.25,3,0,8,0.00
2013-7-15,90,81,70,81,76,70,100,87,63,30.26,30.14,5,0,6,0.00
2013-7-16,91,81,68,79,74,68,100,83,59,30.22,30.16,4,0,7,0.00
2013-7-17,94,82,70,81,76,70,100,83,59,30.23,30.03,5,0,7,0.00
2013-7-18,95,83,75,84,78,75,100,86,57,30.06,29.98,4,0,5,0.15
2013-7-19,96,84,72,83,79,72,100,84,61,30.00,29.76,7,1,15,0.00
2013-7-20,92,82,72,82,76,69,97,82,66,29.87,29.71,6,1,12,0.00
2013-7-21,83,75,65,74,70,65,100,86,69,30.03,29.87,5,0,5,0.00
2013-7-22,81,72,65,76,70,65,100,93,81,30.07,29.93,7,0,7,0.00
2013-7-23,78,72,69,78,72,69,100,100,95,29.93,29.58,6,0,8,1.74
2013-7-24,83,74,63,83,71,56,100,90,72,30.02,29.62,5,1,7,0.00
2013-7-25,64,62,58,62,58,52,100,87,77,30.16,30.02,3,0,3,0.02
2013-7-26,73,66,62,71,65,62,100,98,88,30.12,29.99,4,0,5,0.69
2013-7-27,83,71,58,73,67,58,100,87,61,30.10,30.02,4,0,6,0.00
2013-7-28,82,72,63,76,69,62,100,93,75,30.07,29.99,4,0,7,0.13
2013-7-29,84,74,68,76,72,68,100,93,76,30.09,29.98,3,0,10,0.01
2013-7-30,82,72,60,69,65,59,100,80,55,30.15,30.07,4,0,8,0.00
2013-7-31,81,71,59,71,65,58,100,83,60,30.20,30.08,3,0,6,0.00
2013-8-1,81,69,58,73,66,58,100,91,73,30.09,29.91,5,0,7,0.10
2013-8-2,82,72,65,73,68,65,100,87,60,29.91,29.83,5,0,8,0.72
2013-8-3,78,69,62,70,65,60,100,86,64,29.90,29.81,4,1,11,0.00
2013-8-4,78,67,56,67,61,55,100,82,60,29.95,29.81,5,0,9,0.00
2013-8-5,74,64,54,58,54,50,98,73,44,30.11,29.94,10,1,12,0.00
2013-8-6,78,65,50,64,57,48,97,78,55,30.19,30.11,9,0,9,0.00
2013-8-7,80,67,54,68,60,53,99,80,54,30.24,30.13,6,0,8,0.00
2013-8-8,80,73,66,76,70,62,100,93,84,30.15,30.03,5,0,6,0.02
2013-8-9,75,73,70,75,72,70,100,99,97,30.05,29.78,3,0,8,1.63
2013-8-10,80,71,62,72,67,60,100,86,64,30.06,29.82,7,1,9,0.00
2013-8-11,78,66,54,66,60,53,100,83,58,30.13,30.03,9,0,9,0.00
2013-8-12,80,69,57,70,63,56,100,84,59,30.07,29.95,3,0,6,0.00
2013-8-13,74,68,64,73,67,63,100,99,93,29.96,29.71,3,0,7,0.09
2013-8-14,73,65,57,65,61,57,100,86,66,30.01,29.70,8,1,11,0.00
2013-8-15,76,63,50,63,58,50,100,84,60,30.15,30.01,7,1,10,0.00
2013-8-16,78,64,51,67,59,51,100,86,61,30.24,30.15,4,0,8,0.00
2013-8-17,79,66,52,71,63,52,100,89,64,30.32,30.24,3,0,4,0.00
2013-8-18,78,68,56,72,66,56,100,93,74,30.32,30.12,4,0,6,0.00
2013-8-19,80,69,58,71,66,58,100,89,65,30.12,29.99,5,0,7,0.00
2013-8-20,83,72,60,74,67,60,100,88,63,30.13,30.02,4,0,6,0.00
2013-8-21,86,73,60,74,68,60,100,87,61,30.19,30.06,5,0,7,0.00
2013-8-22,85,69,61,76,68,61,100,95,70,30.07,29.96,4,0,7,0.00
2013-8-23,79,72,60,68,62,57,99,73,54,30.17,29.97,5,1,7,0.00
2013-8-24,75,64,52,62,57,52,100,80,51,30.37,30.18,3,0,6,0.00
2013-8-25,80,66,50,68,59,50,100,82,50,30.43,30.21,4,0,7,0.00
2013-8-26,79,70,63,74,68,62,100,94,83,30.21,29.89,5,0,7,0.08
2013-8-27,83,75,68,76,72,68,100,91,69,29.93,29.85,3,0,6,0.01
2013-8-28,84,73,63,77,70,63,100,92,74,30.02,29.87,3,0,6,0.00
2013-8-29,69,66,62,69,66,62,100,100,100,30.11,29.98,3,0,5,0.19
2013-8-30,82,70,58,75,68,58,100,93,76,30.06,29.84,4,0,7,0.00
2013-8-31,80,74,69,80,74,69,100,100,98,29.85,29.79,4,0,7,0.23
2013-9-1,81,76,70,80,75,70,100,99,92,29.89,29.81,5,0,6,0.00
2013-9-2,79,75,72,79,75,72,100,100,100,29.88,29.72,3,0,6,0.09
2013-9-3,78,71,63,76,70,62,100,96,86,29.84,29.72,4,0,6,0.00
2013-9-4,78,67,57,67,62,57,100,86,60,29.94,29.83,12,0,12,0.00
2013-9-5,69,63,58,63,58,51,100,85,55,30.06,29.88,1,0,9,0.00
2013-9-12,80,73,68,80,72,68,100,99,94,29.75,29.68,0,0,1,0.84
2013-9-13,68,64,59,68,64,59,100,99,94,29.80,29.65,0,0,1,0.06
2013-9-14,66,59,52,61,57,52,100,93,80,30.10,29.79,2,0,8,0.00
2013-9-15,69,57,45,59,53,45,100,88,63,30.22,30.08,2,0,5,0.00
2013-9-16,65,56,47,62,54,43,100,92,79,30.29,30.04,0,0,4,0.02
2013-9-17,61,50,38,51,45,38,100,85,62,30.47,30.30,0,0,4,0.00
2013-9-18,70,54,38,57,49,38,100,85,51,30.36,30.17,0,0,2,0.00
2013-9-19,75,59,43,63,54,43,100,87,56,30.17,30.05,0,0,3,0.00
2013-9-20,76,61,46,65,57,46,100,89,61,30.12,30.01,0,0,3,0.00
2013-9-21,73,62,47,69,60,47,100,95,83,30.05,29.73,4,0,11,0.01
2013-9-22,68,63,52,68,61,52,100,93,72,29.87,29.62,2,0,6,0.72
2013-9-23,61,52,43,52,47,43,100,87,68,30.04,29.87,4,0,6,0.00
2013-9-24,64,52,39,53,47,39,100,86,59,30.03,29.86,3,0,7,0.00
2013-9-25,67,54,41,59,52,41,100,90,72,30.03,29.91,0,0,3,0.00
2013-9-26,65,58,52,57,54,52,100,90,70,30.17,30.03,2,0,2,0.00
2013-9-27,64,58,50,60,56,50,100,95,82,30.29,30.17,0,0,1,0.00
2013-9-28,71,56,44,63,54,44,100,93,72,30.37,30.29,0,0,2,0.00
2013-9-29,66,53,42,59,50,42,100,91,61,30.30,30.14,0,0,2,0.00
2013-9-30,68,52,38,59,50,38,100,93,70,30.16,29.99,0,0,1,0.00
2013-10-1,74,58,42,64,54,42,100,90,62,30.00,29.87,0,0,2,0.00
2013-10-2,77,62,49,69,60,49,100,92,73,29.98,29.86,4,0,6,0.00
2013-10-3,73,60,49,61,56,49,100,88,53,30.12,29.98,0,0,1,0.00
2013-10-4,60,56,50,60,56,50,100,100,100,30.13,30.06,0,0,0,0.41
2013-10-5,66,61,56,64,60,56,100,99,91,30.15,30.08,0,0,0,0.00
2013-10-6,61,55,52,61,55,52,100,100,100,30.27,30.13,0,0,0,0.46
2013-10-7,71,61,54,71,61,54,100,100,100,30.16,29.80,9,0,13,0.47
2013-10-8,63,54,44,58,51,44,100,90,63,30.41,29.92,1,0,5,0.00
2013-10-9,60,50,38,53,48,38,100,91,73,30.52,30.40,0,0,2,0.00
2013-10-10,58,48,38,56,48,38,100,98,86,30.40,30.22,0,0,0,0.00
2013-10-11,68,55,44,58,50,44,100,86,42,30.22,30.13,0,0,2,0.00
2013-10-12,56,51,43,56,51,43,100,100,100,30.44,30.19,0,0,0,0.02
2013-10-13,57,50,41,55,50,41,100,98,90,30.49,30.42,1,0,3,0.00
2013-10-14,62,48,34,54,46,34,100,93,70,30.45,30.27,0,0,1,0.00
2013-10-15,65,56,50,61,55,50,100,97,86,30.30,30.20,0,0,0,0.00
2013-10-16,59,54,49,57,54,49,100,98,88,30.23,29.94,0,0,0,0.00
2013-10-17,70,57,47,64,55,47,100,93,70,29.95,29.74,1,0,7,0.00
2013-10-18,65,58,44,61,54,44,100,89,66,29.94,29.62,6,0,14,0.03
2013-10-19,64,51,36,53,47,36,100,86,61,30.00,29.76,4,0,7,0.00
2013-10-20,59,51,39,53,46,37,100,82,58,30.05,29.71,9,0,13,0.00
2013-10-21,63,48,34,51,43,34,100,87,60,30.14,30.01,2,0,6,0.00
2013-10-22,61,49,39,56,47,39,100,93,79,30.01,29.73,6,0,11,0.00
2013-10-23,50,42,33,44,40,33,100,91,72,29.83,29.62,0,0,0,0.00
2013-10-24,51,44,33,42,37,33,100,78,57,29.92,29.68,8,0,13,0.00
2013-10-25,49,40,30,40,34,28,100,81,60,30.18,29.91,2,0,8,0.00
2013-10-26,52,40,26,41,33,25,100,79,54,30.19,29.89,8,0,12,0.00
2013-10-27,53,47,37,43,39,33,92,74,58,30.09,29.83,5,0,12,0.00
2013-10-28,56,42,29,44,35,29,100,80,56,30.39,30.09,7,0,12,0.00
2013-10-29,46,34,25,32,27,24,97,76,46,30.50,30.39,1,0,2,0.00
2013-10-30,51,38,28,45,34,24,99,89,77,30.40,30.22,0,0,5,0.00
2013-10-31,58,43,30,58,43,30,100,100,99,30.27,29.80,0,0,4,0.16
2013-11-1,65,61,51,65,61,51,100,98,91,29.79,29.44,14,0,14,0.18
2013-11-2,62,50,39,53,48,39,100,92,66,29.77,29.62,0,0,2,0.01
2013-11-3,47,40,31,47,32,24,100,74,48,30.45,29.77,1,0,5,0.00
2013-11-4,40,32,24,26,23,21,91,72,47,30.74,30.46,1,0,4,0.00
2013-11-5,48,35,24,38,30,21,96,85,67,30.76,30.53,1,0,3,0.00
2013-11-6,58,47,34,51,44,33,100,90,74,30.53,30.05,3,0,8,0.00
2013-11-7,62,52,37,61,52,35,100,96,84,30.05,29.71,4,0,9,0.04
2013-11-8,47,37,29,39,32,27,99,83,67,30.12,29.85,4,0,9,0.00
2013-11-9,43,36,26,34,30,24,95,80,60,30.24,30.04,0,0,4,0.00
2013-11-10,51,43,37,47,39,34,100,87,75,30.04,29.76,1,0,8,0.01
2013-11-11,49,43,37,37,34,31,81,71,54,30.13,29.89,5,0,7,0.00
2013-11-12,46,35,27,41,28,20,95,76,63,30.21,29.90,12,0,12,0.01
2013-11-13,35,28,22,22,19,17,88,72,52,30.33,30.17,6,0,8,0.00
2013-11-14,49,37,25,33,27,20,85,69,51,30.18,30.06,3,0,9,0.00
2013-11-15,57,39,26,32,28,22,88,67,33,30.24,30.12,2,0,8,0.00
2013-11-16,57,41,32,41,34,28,93,78,52,30.36,30.22,0,0,0,0.00
2013-11-17,46,38,29,45,38,28,100,98,93,30.37,29.89,0,0,0,0.00
2013-11-18,61,52,45,57,48,38,100,88,67,29.88,29.55,8,0,9,0.17
2013-11-19,46,38,30,38,28,21,75,66,56,30.33,29.70,13,0,13,0.00
2013-11-20,40,32,22,22,20,18,84,63,44,30.68,30.32,4,0,8,0.00
2013-11-21,44,31,18,34,25,16,93,78,48,30.70,30.40,5,0,8,0.00
2013-11-22,44,41,38,44,41,34,100,98,87,30.40,29.85,2,0,4,0.13
2013-11-23,44,38,29,44,31,17,100,78,58,29.98,29.82,10,2,15,0.00
2013-11-24,29,23,19,19,9,2,75,54,37,30.24,29.84,14,3,27,0.00
2013-11-25,32,24,16,19,9,2,64,53,34,30.40,30.24,4,0,10,0.00
2013-11-26,37,33,30,34,27,19,100,79,60,30.37,30.09,3,0,8,0.20
2013-11-27,50,41,33,50,41,33,100,100,100,30.09,29.28,1,0,7,2.41
2013-11-28,36,29,21,36,22,14,100,78,53,30.47,29.50,10,1,16,0.00
2013-11-29,32,25,17,21,17,12,90,72,51,30.78,30.46,9,0,10,0.00
2013-11-30,30,22,11,24,16,8,90,80,64,30.87,30.48,6,0,6,0.00
2013-12-1,34,32,27,34,31,24,100,96,86,30.47,30.07,0,0,0,0.10
2013-12-2,39,36,34,39,36,34,100,100,100,30.07,29.96,0,0,0,0.00
2013-12-3,46,36,28,44,35,28,100,97,82,30.00,29.89,0,0,3,0.01
2013-12-4,40,31,24,36,30,24,100,94,77,30.24,30.00,0,0,4,0.00
2013-12-5,39,35,28,39,35,28,100,100,100,30.27,29.96,0,0,5,0.02
2013-12-6,48,43,34,48,42,34,100,98,84,30.23,29.91,0,0,5,0.23
2013-12-7,37,32,23,36,31,23,100,96,81,30.52,30.15,0,0,8,0.15
2013-12-8,30,26,18,26,23,18,100,90,71,30.65,30.52,0,0,2,0.00
2013-12-9,34,30,25,34,29,23,100,98,83,30.55,29.93,0,0,0,0.00
2013-12-10,34,30,23,34,29,19,100,96,81,30.04,29.84,3,0,5,0.00
2013-12-11,31,24,17,24,20,16,98,87,75,30.24,30.04,6,0,13,0.00
2013-12-12,24,18,9,21,12,5,95,78,54,30.30,30.09,7,0,13,0.00
2013-12-13,28,19,9,22,14,4,88,83,74,30.44,30.05,7,0,9,0.00
2013-12-14,16,12,9,14,5,0,96,74,55,30.66,30.23,0,0,0,0.00
2013-12-15,29,21,15,28,21,14,100,98,95,30.23,29.51,2,0,3,0.00
2013-12-16,26,20,11,20,14,6,100,77,60,30.25,29.77,7,0,10,0.00
2013-12-17,16,8,-4,15,5,-10,98,86,76,30.35,30.03,0,0,0,0.00
2013-12-18,32,23,16,26,21,15,100,91,75,30.11,29.95,8,0,10,0.00
2013-12-19,38,30,19,30,26,17,99,87,72,30.15,30.00,7,0,8,0.00
2013-12-20,48,34,27,41,32,26,100,95,74,30.17,29.94,1,0,1,0.40
2013-12-21,50,37,30,49,37,30,100,100,98,30.00,29.89,0,0,0,0.37
2013-12-22,40,35,33,40,35,33,100,100,100,30.08,29.85,0,0,0,0.04
2013-12-23,35,33,32,35,33,32,100,100,100,30.14,30.01,0,0,1,0.42
2013-12-24,35,30,24,35,28,19,100,92,77,30.26,30.10,3,0,7,0.00
2013-12-25,25,18,13,19,10,6,84,71,58,30.58,30.25,4,0,8,0.00
2013-12-26,28,21,16,27,19,12,98,91,84,30.54,30.13,0,0,0,0.00
2013-12-27,32,21,10,26,19,8,100,89,77,30.33,30.25,2,0,7,0.03
2013-12-28,34,21,16,31,20,14,100,95,88,30.27,30.13,3,0,8,0.00
2013-12-29,36,33,25,36,33,25,100,100,97,30.08,29.52,0,0,4,0.98
2013-12-30,38,31,18,38,27,12,100,85,65,30.22,29.59,7,0,11,0.06
2013-12-31,24,17,11,16,12,6,90,78,63,30.23,30.06,1,0,6,0.00
2014-1-1,25,18,10,15,12,6,89,77,62,30.43,30.22,6,0,9,0.01
2014-1-2,18,11,1,16,8,-2,93,89,85,30.42,29.96,5,0,8,0.00